Location: Saint Louis
(38.6272°N, 90.1978°W)
Time: 20:10:37
(UTC-05:00)

ISS - Pass Details

Date: 15 March 2013
Orbit: 401 x 404 km, 51.6° (Epoch: 26 July)

Event Time Altitude Azimuth Distance (km) Brightness Sun altitude
Exits shadow 06:12:01 20° 244° (WSW) 1,078 -1.8 -12.5°
Maximum altitude 06:14:17 65° 323° (NW) 485 -3.1 -12.0°
Drops below altitude 10° 06:17:45 10° 46° (NE) 1,546 0.5 -11.4°
Sets 06:19:53 0° 49° (NE) 2,413 1.6 -10.9°
